Tracking 20083 objects as of 12-Dec-2019
HD Live streaming from Space Station
objects crossing your sky now

METEOR 2-17 DEB

Track METEOR 2-17 DEB now!
10-day predictions


NORAD ID: 35369
Int'l Code: 1988-005AD
Perigee: 919.3 km
Apogee: 941.8 km
Inclination: 82.5 °
Period: 103.5 minutes
Semi major axis: 7301 km
RCS: 0.003 m2 (small)
Launch date: January 30, 1988
Source: Commonwealth of Independent States (former USSR) (CIS)
Launch site: PLESETSK MISSILE AND SPACE COMPLEX (PKMTR)

Note: This is SATELLITE DEBRIS
aabbcc
Your satellite tracking list
Your tracking list is empty




NASA's NSSDC Master Catalog

Two Line Element Set (TLE):
1 35369U 88005AD  19344.89019969  .00000998  00000-0  77682-3 0  9998
2 35369  82.5277  39.1220 0015437 275.3781 210.7946 13.91495770648192
Source of the keplerian elements: AFSPC